This is the latest recevied weather packets stored in our database for station/object KA7EII-13. If no packets are shown the sender has not sent any weather packets the latest 10 day(s).
| Time | Temp. | Humidity | Pressure | Rain* | Wind** | Luminosity | Snow |
|---|---|---|---|---|---|---|---|
| 1777058297 | 5.56° C | 67% | 1100.8 hPa | 0 mm | - | 461 W/m² | - |
| 1777057993 | 5.56° C | 69% | 1100.8 hPa | 0 mm | - | 740 W/m² | - |
| 1777057693 | 5.56° C | 74% | 1100.8 hPa | 0 mm | - | 610 W/m² | - |
| 1777057389 | 4.44° C | 75% | 1100.8 hPa | 0 mm | - | 661 W/m² | - |
| 1777057084 | 3.89° C | 83% | 1100.8 hPa | 0 mm | - | 626 W/m² | - |
| 1777056780 | 3.89° C | 86% | 1101.1 hPa | 0 mm | - | 652 W/m² | - |
| 1777056475 | 3.89° C | 83% | 1101.3 hPa | 0 mm | - | 407 W/m² | - |
| 1777056170 | 2.22° C | 85% | 1101.4 hPa | 0 mm | - | 400 W/m² | - |
| 1777055867 | 1.67° C | 85% | 1101.5 hPa | 0 mm | - | 325 W/m² | - |
| 1777055563 | 1.67° C | 86% | 1101.4 hPa | 0 mm | - | 235 W/m² | - |
| 1777055264 | 1.67° C | 85% | 1101.5 hPa | 0 mm | - | 193 W/m² | - |
| 1777054963 | 1.67° C | 87% | 1101.6 hPa | 0 mm | - | 155 W/m² | - |
| 1777054659 | 1.67° C | 85% | 1101.4 hPa | 0 mm | - | 108 W/m² | - |
| 1777054356 | 2.22° C | 83% | 1101.5 hPa | 0 mm | - | 78 W/m² | - |
| 1777054055 | 2.78° C | 78% | 1101.3 hPa | 0 mm | - | 98 W/m² | - |
| 1777053755 | 2.78° C | 76% | 1101.2 hPa | 0 mm | - | 128 W/m² | - |
| 1777053455 | 2.78° C | 76% | 1101.2 hPa | 0 mm | - | 147 W/m² | - |
| 1777053151 | 2.78° C | 75% | 1101.3 hPa | 0 mm | - | 159 W/m² | - |
| 1777052847 | 2.78° C | 75% | 1101.3 hPa | 0 mm | - | 180 W/m² | - |
| 1777052547 | 2.78° C | 75% | 1101.3 hPa | 0 mm | - | 212 W/m² | - |
| 1777052244 | 2.78° C | 76% | 1101.4 hPa | 1.78 mm | - | 213 W/m² | - |
| 1777051939 | 2.78° C | 75% | 1101.3 hPa | 1.78 mm | - | 250 W/m² | - |
* Rain latest hour (hover to see other rain measurements)
** Current wind speed in m/s (hover to see current wind gust speed)